Flag for Poland Weather past 2 weeks in Bydgoszcz, Poland

Now
65 °F

Scattered clouds.


Feels Like: 65 °F
Forecast: 48 / 68 °F
Wind: 1 mph from Southwest

Location: Torun

Current Time: Aug 21, 2014 at 4:54:20 PM

Latest Report: Aug 21, 2014 at 4:00 PM


Visibility: 25 mi

Pressure: 29.97 "Hg

Humidity: 49%

Dew point: 46 °F

Location of BydgoszczLocation

Historic Weather in Bydgoszcz — Graph

°F

Bydgoszcz temperature yesterday

Maximum temperature yesterday: 65 °F (at 5:00 PM)
Minimum temperature yesterday: 51 °F (at 11:00 PM)
Average temperature yesterday: 59 °F

Past Weeks' High & Low Weather Summary

 TemperatureHumidityPressure
High87 °F (Aug 9, 4:00 PM)99% (Aug 16, 1:00 AM)30.03 "Hg (Aug 16, 1:00 AM)
Low45 °F (Aug 21, 4:00 AM)28% (Aug 9, 4:00 PM)29.56 "Hg (Aug 14, 4:00 AM)
Average65 °F69%29.86 "Hg
* Reported Aug 6 3:00 PM — Aug 21 3:00 PM, Bydgoszcz, Weather by CustomWeather, © 2014

Note: Actual official high and low records may vary slightly from our data, if they occured in-between our weather recording intervals... More about our weather records

Advertising

Bydgoszcz weather history for previous 24 hours

 ConditionsComfort  
Time TempWeatherWind HumidityBarometerVisibility
3:00 PM
Aug 21
60 °FPartly sunny.1 mph63%29.99 "Hg31 mi
2:00 PM66 °FPartly sunny.2 mph42%29.98 "Hg14 mi
1:00 PM65 °FScattered clouds.3 mph45%30.00 "Hg16 mi
12:00 PM61 °FPartly sunny.2 mph61%30.01 "Hg25 mi
11:00 AM58 °FOvercast.1 mph71%30.01 "Hg22 mi
10:00 AM56 °FOvercast.1 mph76%30.01 "Hg19 mi
9:00 AM54 °FOvercast.1 mph79%30.00 "Hg19 mi
8:00 AM52 °FOvercast.1 mph83%29.99 "Hg11 mi
7:00 AM50 °FOvercast.1 mph88%29.99 "Hg14 mi
6:00 AM47 °FOvercast.1 mph96%29.99 "Hg9 mi
5:00 AM46 °FPassing clouds.No wind96%29.98 "Hg7 mi
4:00 AM45 °FPassing clouds.1 mph92%29.99 "Hg7 mi
3:00 AM47 °FPassing clouds.1 mph84%29.99 "Hg14 mi
2:00 AM51 °FPassing clouds.1 mph81%29.99 "Hg22 mi
1:00 AM52 °FPassing clouds.1 mph77%29.99 "Hg25 mi
12:00 AM53 °FClear.2 mph75%29.99 "Hg25 mi
11:00 PM
Aug 20
51 °FClear.1 mph80%29.98 "Hg31 mi
10:00 PM53 °FClear.1 mph75%29.98 "Hg31 mi
9:00 PM55 °FPassing clouds.1 mph69%29.97 "Hg31 mi
8:00 PM59 °FPassing clouds.1 mph56%29.96 "Hg31 mi
7:00 PM63 °FScattered clouds.2 mph47%29.95 "Hg31 mi
6:00 PM64 °FPartly sunny.3 mph46%29.95 "Hg31 mi
5:00 PM65 °FPartly sunny.3 mph42%29.94 "Hg25 mi
4:00 PM65 °FPartly sunny.5 mph44%29.93 "Hg28 mi
Weather by CustomWeather, © 2014

See weather overviewHow to use our weather pages